Flag for Poland Weather past 2 weeks in Tarnów, Poland

Now
74 °F

Passing clouds.


Feels Like: 77 °F
Forecast: 57 / 75 °F
Wind: 1 mph from Southwest

Location: Tarnow

Current Time: Aug 29, 2014 at 4:46:35 PM

Latest Report: Aug 29, 2014 at 4:00 PM


Visibility: 25 mi

Pressure: 30.05 "Hg

Humidity: 38%

Dew point: 47 °F

Location of TarnówLocation

Historic Weather in Tarnów — Graph

°F

Tarnów temperature yesterday

Maximum temperature yesterday: 67 °F (at 4:00 PM)
Minimum temperature yesterday: 49 °F (at 11:00 PM)
Average temperature yesterday: 58 °F

Past Weeks' High & Low Weather Summary

 TemperatureHumidityPressure
High78 °F (Aug 18, 3:00 PM)98% (Aug 20, 7:00 AM)30.15 "Hg (Aug 20, 7:00 AM)
Low42 °F (Aug 22, 5:00 AM)34% (Aug 18, 3:00 PM)29.75 "Hg (Aug 26, 2:00 PM)
Average59 °F78%29.96 "Hg
* Reported Aug 14 3:00 PM — Aug 29 3:00 PM, Tarnów, Weather by CustomWeather, © 2014

Note: Actual official high and low records may vary slightly from our data, if they occured in-between our weather recording intervals... More about our weather records

Advertising

Tarnów weather history for previous 24 hours

 ConditionsComfort  
Time TempWeatherWind HumidityBarometerVisibility
3:00 PM
Aug 29
72 °FScattered clouds.1 mph38%30.06 "Hg25 mi
2:00 PM72 °FPassing clouds.1 mph36%30.08 "Hg25 mi
1:00 PM72 °FScattered clouds.3 mph38%30.09 "Hg25 mi
12:00 PM70 °FScattered clouds.1 mph43%30.10 "Hg25 mi
11:00 AM68 °FPassing clouds.2 mph48%30.11 "Hg25 mi
10:00 AM66 °FSunny.2 mph59%30.12 "Hg17 mi
9:00 AM62 °FSunny.2 mph69%30.12 "Hg25 mi
8:00 AM54 °FSunny.No wind97%30.14 "Hg15 mi
7:00 AM46 °FSunny.No wind97%30.15 "Hg6 mi
6:00 AM43 °FSunny.No wind96%30.15 "Hg6 mi
5:00 AM44 °FClear.No wind96%30.14 "Hg6 mi
4:00 AM45 °FClear.No wind95%30.14 "Hg6 mi
3:00 AM46 °FClear.No wind95%30.14 "Hg1 mi
2:00 AM47 °FClear.No wind94%30.14 "Hg6 mi
1:00 AM49 °FClear.1 mph95%30.14 "Hg6 mi
12:00 AM48 °FClear.1 mph94%30.13 "Hg6 mi
11:00 PM
Aug 28
49 °FClear.No wind93%30.12 "Hg6 mi
10:00 PM51 °FClear.No wind91%30.12 "Hg6 mi
9:00 PM53 °FClear.No wind86%30.11 "Hg6 mi
8:00 PM57 °FPassing clouds.No wind76%30.09 "Hg6 mi
7:00 PM63 °FPassing clouds.1 mph61%30.07 "Hg10 mi
6:00 PM66 °FPassing clouds.2 mph52%30.06 "Hg12 mi
5:00 PM65 °FScattered clouds.2 mph54%30.06 "Hg19 mi
4:00 PM67 °FScattered clouds.2 mph48%30.06 "Hg25 mi
Weather by CustomWeather, © 2014

See weather overviewHow to use our weather pages